| time (UTC) | temp C | wind direction | speed KPH | gust KPH | rain 1hr cm | rain 24hr cm | rain mn cm | humidity % | barometer mb |
| 20260901084619 | 22 | 0 | 0.0 | 0.0 | 0.00 | 2.87 | 0.00 | 94 | 1019.8 |
| 20260901083048 | 22 | 0 | 0.0 | 0.0 | 0.00 | 2.87 | 0.00 | 94 | 1020.0 |
| 20260901081545 | 22 | 0 | 0.0 | 0.0 | 0.00 | 2.87 | 0.00 | 94 | 1019.9 |
| 20260901080056 | 22 | 0 | 0.0 | 0.0 | 0.00 | 2.87 | 0.00 | 94 | 1019.9 |
| 20260901074558 | 22 | 0 | 0.0 | 0.0 | 0.00 | 2.87 | 0.00 | 94 | 1019.9 |
| 20260901073049 | 22 | 0 | 0.0 | 0.0 | 0.00 | 2.87 | 0.00 | 94 | 1020.0 |
| 20260901071555 | 22 | 0 | 0.0 | 0.0 | 0.00 | 2.87 | 0.00 | 94 | 1020.2 |
| 20260901070056 | 22 | 0 | 0.0 | 0.0 | 0.00 | 2.87 | 0.00 | 94 | 1020.3 |
| 20260901064548 | 22 | 0 | 0.0 | 0.0 | 0.00 | 2.87 | 0.00 | 94 | 1020.2 |
| 20260901063107 | 22 | 0 | 0.0 | 0.0 | 0.00 | 2.87 | 0.00 | 94 | 1020.3 |
| 20260901061555 | 22 | 0 | 0.0 | 0.0 | 0.00 | 2.87 | 0.00 | 94 | 1020.4 |
| 20260901060048 | 22 | 0 | 0.0 | 0.0 | 0.00 | 2.87 | 0.00 | 94 | 1020.5 |
| 20260901054553 | 22 | 0 | 0.0 | 0.0 | 0.00 | 2.87 | 0.00 | 94 | 1020.5 |
| 20260901053056 | 22 | 0 | 0.0 | 0.0 | 0.00 | 2.87 | 0.00 | 93 | 1020.6 |
| 20260901051619 | 22 | 0 | 0.0 | 0.0 | 0.00 | 2.87 | 0.00 | 93 | 1020.5 |
| 20260901044555 | 22 | 0 | 0.0 | 0.0 | 0.00 | 2.87 | 0.00 | 93 | 1020.5 |
| 20260901043056 | 22 | 0 | 0.0 | 0.0 | 0.00 | 2.87 | 0.00 | 93 | 1020.6 |
| 20260901041552 | 23 | 0 | 0.0 | 0.0 | 0.00 | 2.87 | 0.00 | 93 | 1020.6 |
| 20260901040049 | 23 | 0 | 0.0 | 0.0 | 0.00 | 2.87 | 0.00 | 93 | 1020.6 |
| 20260901034604 | 23 | 0 | 0.0 | 0.0 | 0.00 | 2.87 | 2.87 | 93 | 1020.5 |
| 20260901033109 | 23 | 0 | 0.0 | 0.0 | 0.00 | 2.87 | 2.87 | 93 | 1020.6 |
| 20260901031549 | 23 | 0 | 0.0 | 0.0 | 0.00 | 2.87 | 2.87 | 93 | 1020.6 |
| 20260901030048 | 23 | 0 | 0.0 | 0.0 | 0.00 | 2.87 | 2.87 | 93 | 1020.6 |
| 20260901024600 | 23 | 0 | 0.0 | 0.0 | 0.00 | 2.87 | 2.87 | 93 | 1020.5 |
| 20260901023055 | 23 | 0 | 0.0 | 0.0 | 0.00 | 2.87 | 2.87 | 92 | 1020.5 |
| 20260901021551 | 23 | 0 | 0.0 | 0.0 | 0.00 | 2.87 | 2.87 | 92 | 1020.5 |
| 20260901020051 | 23 | 0 | 0.0 | 0.0 | 0.00 | 2.87 | 2.87 | 92 | 1020.5 |
| 20260901014600 | 24 | 0 | 0.0 | 0.0 | 0.00 | 2.87 | 2.87 | 92 | 1020.4 |
| 20260901013052 | 24 | 0 | 0.0 | 0.0 | 0.00 | 2.87 | 2.87 | 92 | 1020.1 |
| 20260901011549 | 24 | 0 | 0.0 | 0.0 | 0.00 | 2.87 | 2.87 | 91 | 1020.0 |
| 20260901010049 | 24 | 0 | 0.0 | 0.0 | 0.00 | 2.87 | 2.87 | 91 | 1019.7 |
| 20260901004612 | 24 | 0 | 0.0 | 0.0 | 0.00 | 2.87 | 2.87 | 91 | 1019.7 |
| 20260901003054 | 24 | 0 | 0.0 | 0.0 | 0.00 | 2.87 | 2.87 | 90 | 1019.5 |
| 20260901001554 | 25 | 0 | 0.0 | 0.0 | 0.00 | 2.87 | 2.87 | 89 | 1019.4 |
| 20260901000058 | 25 | 0 | 0.0 | 0.0 | 0.00 | 2.87 | 2.87 | 88 | 1019.2 |
| 20260831234550 | 25 | 0 | 0.0 | 0.0 | 0.00 | 2.87 | 2.87 | 87 | 1019.3 |
| 20260831233048 | 26 | 0 | 0.0 | 0.0 | 0.00 | 2.87 | 2.87 | 84 | 1019.2 |
| 20260831231603 | 26 | 0 | 0.0 | 0.0 | 0.00 | 2.87 | 2.87 | 86 | 1019.4 |
| 20260831230056 | 26 | 0 | 0.0 | 0.0 | 0.00 | 2.87 | 2.87 | 84 | 1019.3 |
| 20260831224551 | 26 | 0 | 0.0 | 0.0 | 0.00 | 2.87 | 2.87 | 84 | 1019.4 |
| 20260831223049 | 26 | 0 | 0.0 | 0.0 | 0.00 | 2.87 | 2.87 | 84 | 1019.5 |
| 20260831221545 | 26 | 0 | 0.0 | 0.0 | 0.00 | 2.87 | 2.87 | 84 | 1019.8 |
| 20260831220054 | 26 | 0 | 0.0 | 3.2 | 0.00 | 2.87 | 2.87 | 83 | 1019.9 |
| 20260831214555 | 25 | 0 | 0.0 | 1.6 | 0.00 | 2.87 | 2.87 | 85 | 1019.7 |
| 20260831213049 | 25 | 0 | 0.0 | 3.2 | 0.00 | 2.87 | 2.87 | 87 | 1019.8 |
| 20260831211544 | 25 | 0 | 0.0 | 4.8 | 0.28 | 2.87 | 2.87 | 88 | 1019.9 |
| 20260831210052 | 23 | 0 | 0.0 | 3.2 | 1.63 | 2.87 | 2.87 | 91 | 1020.0 |
| 20260831204551 | 22 | 0 | 0.0 | 9.7 | 2.87 | 2.87 | 2.87 | 88 | 1020.2 |
| 20260831203054 | 22 | 175 | 1.6 | 20.9 | 2.87 | 2.87 | 2.87 | 89 | 1020.5 |
| 20260831201557 | 23 | 184 | 6.4 | 19.3 | 2.51 | 2.51 | 2.51 | 88 | 1021.2 |
| 20260831200058 | 25 | 121 | 4.8 | 12.9 | 1.17 | 1.17 | 1.17 | 78 | 1021.5 |
| 20260831194639 | 33 | 323 | 0.0 | 6.4 | 0.00 | 0.00 | 0.00 | 50 | 1020.2 |
| 20260831193058 | 32 | 0 | 0.0 | 9.7 | 0.00 | 0.00 | 0.00 | 51 | 1019.9 |
| 20260831191558 | 32 | 113 | 1.6 | 6.4 | 0.00 | 0.00 | 0.00 | 51 | 1020.1 |
| 20260831190116 | 32 | 0 | 0.0 | 0.0 | 0.00 | 0.00 | 0.00 | 54 | 1020.3 |
| 20260831184559 | 33 | 0 | 0.0 | 3.2 | 0.00 | 0.00 | 0.00 | 52 | 1020.5 |
| 20260831183100 | 32 | 0 | 0.0 | 6.4 | 0.00 | 0.00 | 0.00 | 54 | 1020.5 |
| 20260831181603 | 32 | 0 | 0.0 | 4.8 | 0.00 | 0.00 | 0.00 | 53 | 1020.6 |
| 20260831180106 | 32 | 0 | 0.0 | 4.8 | 0.00 | 0.00 | 0.00 | 58 | 1021.0 |
| 20260831174633 | 32 | 128 | 0.0 | 3.2 | 0.00 | 0.00 | 0.00 | 57 | 1021.1 |
| 20260831173051 | 32 | 0 | 0.0 | 3.2 | 0.00 | 0.00 | 0.00 | 58 | 1021.1 |
| 20260831171553 | 31 | 0 | 0.0 | 3.2 | 0.00 | 0.00 | 0.00 | 59 | 1021.3 |
| 20260831170108 | 31 | 277 | 0.0 | 8.0 | 0.00 | 0.00 | 0.00 | 59 | 1021.3 |
| 20260831164554 | 31 | 0 | 0.0 | 6.4 | 0.00 | 0.00 | 0.00 | 59 | 1021.4 |
| 20260831163055 | 30 | 119 | 0.0 | 4.8 | 0.00 | 0.00 | 0.00 | 61 | 1021.6 |
| 20260831161555 | 30 | 0 | 0.0 | 11.3 | 0.00 | 0.00 | 0.00 | 64 | 1021.7 |
| 20260831160051 | 30 | 0 | 0.0 | 1.6 | 0.00 | 0.00 | 0.00 | 64 | 1021.8 |
| 20260831154615 | 30 | 0 | 0.0 | 3.2 | 0.00 | 0.00 | 0.00 | 66 | 1021.8 |
| 20260831153059 | 29 | 213 | 0.0 | 6.4 | 0.00 | 0.00 | 0.00 | 65 | 1022.0 |
| 20260831151553 | 28 | 0 | 0.0 | 3.2 | 0.00 | 0.00 | 0.00 | 68 | 1021.9 |
| 20260831150059 | 28 | 0 | 0.0 | 4.8 | 0.00 | 0.00 | 0.00 | 69 | 1022.2 |
| 20260831144601 | 28 | 0 | 0.0 | 6.4 | 0.00 | 0.00 | 0.00 | 71 | 1022.1 |
| 20260831143056 | 27 | 0 | 0.0 | 4.8 | 0.00 | 0.00 | 0.00 | 74 | 1022.1 |
| 20260831141558 | 27 | 0 | 1.6 | 8.0 | 0.00 | 0.00 | 0.00 | 76 | 1022.0 |
| 20260831140053 | 26 | 0 | 0.0 | 8.0 | 0.00 | 0.00 | 0.00 | 77 | 1021.9 |
| 20260831134601 | 26 | 0 | 0.0 | 4.8 | 0.00 | 0.00 | 0.00 | 79 | 1021.9 |
| 20260831133102 | 25 | 329 | 0.0 | 8.0 | 0.00 | 0.00 | 0.00 | 82 | 1021.9 |
| 20260831131555 | 24 | 0 | 0.0 | 1.6 | 0.00 | 0.00 | 0.00 | 84 | 1022.0 |
| 20260831130100 | 23 | 0 | 0.0 | 4.8 | 0.00 | 0.00 | 0.00 | 87 | 1021.9 |
| 20260831124552 | 22 | 0 | 0.0 | 6.4 | 0.00 | 0.00 | 0.00 | 89 | 1022.0 |
| 20260831123051 | 22 | 0 | 0.0 | 4.8 | 0.00 | 0.00 | 0.00 | 92 | 1022.0 |
| 20260831121549 | 21 | 0 | 0.0 | 0.0 | 0.00 | 0.00 | 0.00 | 94 | 1022.0 |
| 20260831120058 | 21 | 0 | 0.0 | 0.0 | 0.00 | 0.00 | 0.00 | 94 | 1021.9 |
| 20260831114555 | 20 | 0 | 0.0 | 0.0 | 0.00 | 0.00 | 0.00 | 94 | 1021.9 |
| 20260831113105 | 20 | 0 | 0.0 | 0.0 | 0.00 | 0.00 | 0.00 | 94 | 1021.8 |
| 20260831111548 | 20 | 0 | 0.0 | 0.0 | 0.00 | 0.00 | 0.00 | 94 | 1021.8 |
| 20260831110055 | 20 | 0 | 0.0 | 0.0 | 0.00 | 0.00 | 0.00 | 94 | 1021.7 |
| 20260831104559 | 20 | 0 | 0.0 | 0.0 | 0.00 | 0.00 | 0.00 | 93 | 1021.7 |
| 20260831103052 | 20 | 0 | 0.0 | 0.0 | 0.00 | 0.00 | 0.00 | 93 | 1021.5 |
| 20260831101552 | 20 | 0 | 0.0 | 0.0 | 0.00 | 0.00 | 0.00 | 93 | 1021.6 |
| 20260831100100 | 20 | 0 | 0.0 | 0.0 | 0.00 | 0.00 | 0.00 | 93 | 1021.3 |
| 20260831094603 | 20 | 0 | 0.0 | 0.0 | 0.00 | 0.00 | 0.00 | 93 | 1021.4 |
| 20260831093138 | 20 | 0 | 0.0 | 0.0 | 0.00 | 0.00 | 0.00 | 93 | 1021.3 |
| 20260831091555 | 20 | 0 | 0.0 | 0.0 | 0.00 | 0.00 | 0.00 | 93 | 1021.2 |
| 20260831090057 | 20 | 0 | 0.0 | 0.0 | 0.00 | 0.00 | 0.00 | 93 | 1021.0 |